Regional Weather Roundup
Issued by NWS

Home | Current Version | Previous Version | Text Only | Print | Product List | Glossary On
Versions: 1 2 3 4 5 6 7 8 9 10 11 12 13 14 15 16 17 18 19 20 21 22 23 24 25 26 27 28 29 30 31 32 33 34 35 36 37 38 39 40 41 42 43 44 45 46 47 48 49 50
000
ASUS43 KLMK 242102
RWRKY
KENTUCKY REGIONAL WEATHER ROUNDUP
NATIONAL WEATHER SERVICE LOUISVILLE KY
500 PM EDT WED AUG 24 2016

NOTE "FAIR" INDICATES FEW OR NO CLOUDS BELOW 12,000 FEET
WITH NO SIGNIFICANT WEATHER AND/OR OBSTRUCTIONS TO VISIBILITY.

KYZ001>023-026-027-061>063-070>075-242200-
WESTERN AND SOUTH CENTRAL KENTUCKY

CITY           SKY/WX    TMP DP  RH WIND       PRES   REMARKS
PADUCAH        SUNNY     90  72  55 SW16G24   30.06F HX  97
HENDERSON      CLOUDY    90  73  58 SW10G16   30.04F HX  98
OWENSBORO      MOSUNNY   91  76  61 SW14      30.07F HX 102
HOPKINSVILLE   MOSUNNY   90  75  61 SW16      30.10F HX 100
BOWLING GREEN  PTSUNNY   91  71  51 S12       30.11F HX  97
GLASGOW        CLOUDY    89  73  58 S9        30.13F HX  96
$$

KYZ024-025-028>034-038-045-046-053-242200-
NORTH CENTRAL KENTUCKY

CITY           SKY/WX    TMP DP  RH WIND       PRES   REMARKS
LOUISVILLE/SDF PTSUNNY   91  71  51 SW16      30.08S HX  97
LOUISVILLE/LOU CLOUDY    89  71  55 SW14G20   30.08F HX  95
FORT KNOX      SUNNY     88  73  60 S9        30.09F HX  95
$$

KYZ035>037-039>044-047>052-055>060-089>105-242200-
NORTHEAST KENTUCKY

CITY           SKY/WX    TMP DP  RH WIND       PRES   REMARKS
LEXINGTON      MOSUNNY   88  71  57 SW12      30.13F HX  94
COVINGTON      CLOUDY    86  73  65 S9        30.10S HX  93
FRANKFORT      MOSUNNY   87  71  58 S16       30.10F HX  93
$$

KYZ054-064>069-076>088-106>120-242200-
SOUTHEAST KENTUCKY

CITY           SKY/WX    TMP DP  RH WIND       PRES   REMARKS
JACKSON        MOSUNNY   85  71  63 VRB5      30.18F HX  90
LONDON         SUNNY     87  67  51 SW9       30.18F HX  90
SOMERSET       MOSUNNY   86  68  54 S7        30.16F
MIDDLESBORO    SUNNY     87  70  56 S6        30.19F HX  92
MONTICELLO     PTCLDY   N/A N/A N/A SW10G18   30.17F
$$





USA.gov is the U.S. government's official web portal to all federal, state and local government web resources and services.